Naps Table

Saturday May 26th

Saturday May 26th Naps Table
Selection Race Tipster W L £1 Stake Sky Bet
Gilgamesh 14:00 York Racing UK The Score 0 1 +6.631006 11/43.75
Mancini 14:15 Hayd Sunday Telegraph Whistler 0 12 -4.13496 10/34.33
Awesome 14:20 Chtr Belfast Newsletter Wise Owl 0 7 -12.5488 13/27.50
Zorion 14:25 Cur The Irish Sun 0 4 -19.0481 13/27.50
Society Power (IRE) 14:30 Gwd Sky Sports News Alex Hammond 0 2 -21.0479 7/24.50
Across The Stars (IRE) 14:35 York Star Andrew Bladen 0 2 -11.25489 5/16.00
Crack On Crack On 14:50 Hayd Weekender Paul Kealy 0 10 +7.01007 4/15.00
Qaysar (FR) 14:50 Hayd Sunday Mail Rockavon 0 11 -23.25477 4/15.00
Baraweez (IRE) 14:55 Chtr Daily Telegraph Marlborough 0 2 +2.051002 8/19.00
Sabador (FR) 14:55 Chtr Daily Mirror Newsboy 1 0 -0.46500 3/14.00
Sound Advice 14:55 Chtr sportinglife.com 1 0 -3.63497 5/16.00
Sound Advice 14:55 Chtr Racing and Football Outlook Andrew Mount 0 3 -5.63495 5/16.00
Sound Advice 14:55 Chtr Irish Post Karl Hedley 0 2 -10.0490 5/16.00
Baraweez (IRE) 14:55 Chtr Morning Star Farringdon 0 18 -22.88478 8/19.00
Van Beethoven (CAN) 15:00 Cur Daily Post Mercury 1 0 +11.61011 10/111.91
Precious Ramotswe 15:05 York Sunday Express Jason Heavey 0 2 -6.4494 3/14.00
Heartache 15:25 Hayd Racing Post Lambourn 0 1 +13.311013 4/15.00
Sands Of Mali (FR) 15:25 Hayd The Sun Templegate 1 0 +1.171001 7/24.50
Barraquero (IRE) 15:25 Hayd Scottish Express Chris Goulding 0 3 -2.72498 8/19.00
Sands Of Mali (FR) 15:25 Hayd The i Jon Freeman 1 0 -6.25494 7/24.50
James Garfield (IRE) 15:25 Hayd Daily Express The Scout 0 4 -8.71492 9/25.50
Heartache 15:25 Hayd Daily Record Garry Owen 0 17 -11.78489 4/15.00
Star Of The East (IRE) 15:30 Chtr attheraces.com Lawrence Taylor 0 14 +2.381002 5/16.00
Redicean 15:30 Chtr Sheffield Star Fortunatus 1 0 -1.98499 4/15.00
Star Of The East (IRE) 15:30 Chtr Liverpool Echo Chris Wright 0 21 -17.43483 5/16.00
Major Jumbo 15:40 York Daily Mail Robin Goodfellow 0 3 +5.131005 7/18.00
Dakota Gold 15:40 York Yorkshire Post The Duke 0 1 +3.711003 10/111.00
Carlton Frankie 15:40 York The Leader Charlie Croasdale 0 4 -3.5497 8/19.00
Mabs Cross 16:00 Hayd The Times Rob Wright 0 2 +6.731006 11/112.00
Battaash (IRE) 16:00 Hayd Glasgow Herald PicksfromthePaddock 1 0 -5.9495 4/61.67
Elarqam 16:10 Cur Irish Daily Star Brian Flanagan 1 0 +18.311018 7/42.75
Elarqam 16:10 Cur Yorkshire Evening Post Lee Sobot 4 0 -3.22497 7/42.75
U S Navy Flag (USA) 16:10 Cur The Sun On Sunday Sirius 1 0 -7.84493 11/43.75
Symbolization (IRE) 16:10 Cur Western Morning News West Tip 0 3 -12.97488 11/112.00
Gustav Klimt (IRE) 16:10 Cur Gloucestershire Echo Melissa Jones 1 0 +1000 4/15.00
Koeman 16:20 Gwd Scottish Sun Jim Delahunt 0 4 -1.8499 7/24.50
Soghan (IRE) 16:20 Gwd Racing Post Spotlight 0 1 -9.63491 4/15.00
Different League (FR) 16:35 Hayd The Guardian 1 0 -12.09488 10/34.33
Jabbaar 16:40 Chtr Racing Post RP Ratings 2 0 +2.241002 2/13.00
River Icon 17:00 Cart Racing Post The North 0 2 +8.01008 9/43.25
Maid In India (IRE) 17:10 Hayd The Irish Field Rory Delargy 0 1 -9.88491 11/43.75
Dark Devil (IRE) 17:15 Chtr Daily Star Sunday Moorestyle 1 0 +9.631009 4/15.00
My Amigo 17:25 York The Press, York Ebor 0 6 -8.5492 11/112.00
Alfred Hutchinson 17:25 York Racing Post Postdata 0 3 -13.0487 11/112.00
Nayel (IRE) 18:15 Hayd The Star 0 1 +11.931011 4/15.00
Nayel (IRE) 18:15 Hayd Oxford Mail Mark Edwards 0 1 +0.11000 4/15.00
Karawaan (IRE) 18:15 Hayd Racing Post Newmarket 0 4 -5.93495 2/13.00
Nayel (IRE) 18:15 Hayd Shropshire Star Andy Morris 0 2 -17.91483 4/15.00
Cropley (IRE) 18:35 Flas The Scotsman Glendale 0 15 -13.0487 9/25.50
Lashabeeh (IRE) 18:50 Sal Glasgow Evening Times Jeffrey Ross 2 0 -1.09499 5/23.50

© Racing Post